[[{"header":{"parameterUnit":"m.s-1","parameterCategory":1,"la1":30.2991,"la2":30.254,"lo1":-89.0895,"lo2":-89.0444,"dy":0.0017,"dx":0.0017,"nx":28,"ny":28,"refTime":"2024-08-23T09:00:00:Z","depth":0,"parameterNumber":2,"parameterNumberName":"U-component_of_WINDS"},"data":[0,0,0,0,0,0,0,0,0,0,0,0,0,0,0,0,0,0,0,0,0,0,0,0,0,0,0,0,0,0,0,0,0,0,0,0,0,0,0,0,0,0,0,0,0,0,0,0,0,0,0,0,0,0,0,0,0,0,-6.9536,-6.9537,0,-6.9663,-6.9664,-6.9666,-6.9537,-6.9532,-6.9527,-6.9522,-6.965,-6.9658,-6.9666,0,0,0,0,0,0,0,0,0,0,0,0,0,-6.9181,-6.9188,-6.9536,-6.9537,-6.9539,-6.9663,-6.9664,-6.9666,-6.9538,-6.9532,-6.9526,-6.952,-6.9648,-6.9657,-6.9667,0,0,0,0,0,0,0,0,0,0,0,0,0,-6.9324,-6.919,-6.9536,-6.949,-6.9487,-6.9662,-6.9664,-6.9666,-6.9539,-6.9532,-6.9524,-6.9517,-6.9644,-6.9656,-6.9668,-6.9894,0,0,-6.9705,-6.971,0,0,0,0,0,0,0,0,-6.9316,-6.9337,-6.9495,-6.9494,-6.9491,-6.9576,-6.9586,-6.9743,-6.9541,-6.952,-6.9522,-6.9514,-6.9632,-6.9644,-6.9685,-6.99,-6.9905,-6.9706,-6.9714,-6.9719,-6.9722,0,0,0,0,0,0,0,-6.9306,-6.9331,-6.9586,-6.9498,-6.9495,-6.9463,-6.9475,-6.9615,-6.9616,-6.9521,-6.9512,-6.9529,-6.9629,-6.9673,-6.9687,-6.9907,-6.9706,-6.9717,-6.9724,-6.9729,-7.0311,-7.0319,0,0,0,0,0,0,-6.9302,-6.9324,-6.9582,-6.959,-6.9383,-6.9475,-6.9489,-6.9557,-6.9614,-6.9616,-6.9535,-6.9522,-6.9656,-6.9673,-6.9691,-6.9956,-6.9719,-6.973,-6.9737,-7.0303,-7.0313,-7.0322,0,0,0,0,0,0,-6.9295,-6.9326,-6.9577,-6.9454,-6.9484,-6.9489,-6.9567,-6.9563,-6.9607,-6.9625,-6.9624,-6.958,-6.9651,-6.9674,-6.9844,-6.9959,-6.9736,-6.9747,-7.0293,-7.0306,-7.0317,-7.049,0,0,0,0,0,0,-6.9285,-6.9324,-6.941,-6.9457,-6.9491,-6.9729,-6.9574,-6.9571,-6.9629,-6.9613,-6.9667,-6.9669,-6.9647,-6.9826,-6.9856,-6.9971,-6.9756,-7.0283,-7.0299,-7.0313,-7.0474,-7.0507,-7.0535,0,0,0,0,0,-6.9273,-6.9454,-6.9415,-6.9447,-6.9599,-6.9736,-6.9755,-6.9726,-6.9638,-6.9724,-6.9736,-6.9667,-6.9943,-6.9845,-6.9877,-6.9998,-7.0275,-7.0294,-7.0312,-7.046,-7.05,-7.0534,0,0,0,0,0,0,-6.9419,-6.9459,-6.9417,-6.9619,-6.9675,-6.9714,-6.9821,-6.977,-6.9851,-6.9833,-6.9794,-6.9807,-6.9987,-7.001,-6.9901,-7.0218,-7.0094,-7.012,-7.0196,-7.0234,-7.0264,-7.0253,-6.9766,0,0,0,0,0,-6.9475,-6.9584,-6.9613,-6.9788,-6.9819,-6.9816,-6.9874,-6.9848,-6.9904,-6.9927,-6.9951,-7.0007,-7.0106,-7.0172,-7.0264,-7.0478,-7.0487,-7.0577,-7.0608,-7.0632,-7.0654,-7.0766,-7.0806,-7.0382,-7.0382,-7.0382,0,0,-6.9591,-6.9627,-6.9697,-6.9818,-6.9859,-6.9971,-6.9836,-6.9961,-7.0043,-6.9945,-7.0106,-7.0127,-7.0188,-7.038,-7.0466,-7.0404,-7.0773,-7.0656,-7.0676,-7.0683,-7.0789,-7.0829,-7.0865,-7.0395,-7.0393,-7.0391,0,0,-6.9859,-6.9899,-7.0048,-7.0091,-7.0154,-7.0152,-7.0188,-7.0235,-7.0245,-7.0407,-7.0335,-7.0433,-7.0605,-7.065,-7.0696,-7.0983,-7.0922,-7.1015,-7.1171,-7.1282,-7.1315,-7.1344,-7.1444,-7.148,-7.1037,-7.1037,-7.1038,0,-6.9995,-7.0162,-7.0131,-7.026,-7.0315,-7.0233,-7.0383,-7.0427,-7.0517,-7.0556,-7.0487,-7.07,-7.0735,-7.0936,-7.1006,-7.1047,-7.1085,-7.1006,-7.1313,-7.1342,-7.1369,-7.1463,-7.1501,-7.1048,-7.1047,-7.1046,-7.1045,0,-7.0324,-7.0441,-7.0554,-7.0643,-7.0711,-7.0851,-7.084,-7.0912,-7.0881,-7.0885,-7.105,-7.109,-7.1188,-7.1235,-7.1205,-7.1432,-7.1391,-7.1319,-7.1193,-7.142,-7.1508,-7.1544,-7.1063,-7.1059,-7.1056,-7.1053,0,0,-7.0685,-7.0756,-7.0798,-7.0837,-7.0901,-7.099,-7.1127,-7.1223,-7.1284,-7.1351,-7.1461,-7.161,-7.1543,-7.1595,-7.157,-7.1668,-7.1889,-7.1582,-7.1583,-7.1635,-7.2138,-7.2189,-7.2232,-7.1851,-7.1858,-7.1863,-7.2132,0,-7.0952,-7.1187,-7.1163,-7.1386,-7.1493,-7.1418,-7.1536,-7.1588,-7.1596,-7.1687,-7.1696,-7.1801,-7.1706,-7.1737,-7.183,-7.1843,-7.1989,-7.1824,-7.1951,-7.1956,-7.1934,-7.2278,-7.2333,-7.2584,-7.2166,-7.2172,-7.2177,0,-7.1294,-7.1372,-7.1606,-7.1653,-7.1697,-7.1803,-7.1889,-7.1978,-7.2036,-7.2035,-7.2095,-7.2053,-7.2188,-7.2063,-7.2248,-7.2136,-7.2188,-7.2202,-7.2211,-7.2218,-7.2077,-7.2291,-7.2664,-7.27,-7.2231,-7.2227,-7.2223,0,-7.1528,-7.1692,-7.1853,-7.1889,-7.195,-7.2026,-7.2055,-7.2105,-7.2164,-7.224,-7.2278,-7.2369,-7.2418,-7.2489,-7.2473,-7.2384,-7.2661,-7.2535,-7.2662,-7.2662,-7.272,-7.2715,-7.3102,-7.2761,-7.276,-7.276,-7.2759,0,-7.1826,-7.1971,-7.1959,-7.2057,-7.2217,-7.219,-7.2349,-7.2368,-7.2414,-7.2514,-7.2456,-7.2551,-7.2526,-7.262,-7.2609,-7.2762,-7.2786,-7.2787,-7.2781,-7.279,-7.2789,-7.282,-7.28,-7.277,-7.2767,-7.2766,-7.2764,0,-7.2113,-7.2111,-7.228,-7.2325,-7.2339,-7.2455,-7.2492,-7.2584,-7.259,-7.2717,-7.2745,-7.2752,-7.286,-7.2852,-7.2974,-7.2966,-7.3154,-7.3131,-7.3135,-7.3128,-7.3254,-7.324,-7.3669,-7.3723,-7.3352,-7.3355,-7.3358,0,-7.2301,-7.2411,-7.2467,-7.253,-7.2564,-7.2667,-7.2727,-7.2705,-7.277,-7.2845,-7.2928,-7.3031,-7.3111,-7.3287,-7.3302,-7.3395,-7.337,-7.3514,-7.3383,-7.3387,-7.3367,-7.3359,-7.3368,-7.3538,-7.3542,-7.3546,-7.3548,0,-7.2633,-7.2627,-7.2716,-7.2807,-7.2881,-7.295,-7.3014,-7.3069,-7.3053,-7.3129,-7.3239,-7.3302,-7.3426,-7.3528,-7.3616,-7.3645,-7.3594,-7.3591,-7.3624,-7.3631,-7.3627,-7.3627,-7.32,-7.3579,-7.3576,-7.3574,-7.3572,-7.3571,-7.2873,-7.2967,-7.3021,-7.3122,-7.3168,-7.3229,-7.3317,-7.3334,-7.3425,-7.3524,-7.3507,-7.3629,-7.3684,-7.3797,-7.3835,-7.393,-7.3878,-7.3927,-7.3939,-7.395,-7.3963,-7.3617,-7.3947,-7.3946,-7.3945,-7.3944,-7.3944,0,-7.3199,-7.323,-7.3325,-7.3415,-7.3495,-7.3443,-7.3511,-7.358,-7.3689,-7.3745,-7.3826,-7.3951,-7.405,-7.4075,-7.417,-7.4241,-7.422,-7.4266,-7.4258,-7.4265,-7.4006,-7.3965,-7.4282,-7.4281,-7.4281,-7.4281,-7.4281,-7.4281,-7.3377,-7.3531,-7.3532,-7.3708,-7.3739,-7.3858,-7.3901,-7.3957,-7.4001,-7.4144,-7.4226,-7.4242,-7.4285,-7.4383,-7.4471,-7.4475,-7.4511,-7.4566,-7.4561,-7.4318,-7.4284,-7.4251,-7.4213,-7.4575,-7.4576,-7.4812,-7.4814,-7.4815]},{"header":{"parameterUnit":"m.s-1","parameterCategory":1,"la1":30.2991,"la2":30.254,"lo1":-89.0895,"lo2":-89.0444,"dy":0.0017,"dx":0.0017,"nx":28,"ny":28,"refTime":"2024-08-23T09:00:00:Z","depth":0,"parameterNumber":3,"parameterNumberName":"V-component_of_WINDS"},"data":[0,0,0,0,0,0,0,0,0,0,0,0,0,0,0,0,0,0,0,0,0,0,0,0,0,0,0,0,0,0,0,0,0,0,0,0,0,0,0,0,0,0,0,0,0,0,0,0,0,0,0,0,0,0,0,0,0,0,-1.1988,-1.1988,0,-1.1995,-1.1995,-1.1995,-1.203,-1.2031,-1.2032,-1.2033,-1.2038,-1.2037,-1.2036,0,0,0,0,0,0,0,0,0,0,0,0,0,-1.2001,-1.2001,-1.1988,-1.1988,-1.1988,-1.1995,-1.1995,-1.1995,-1.203,-1.2031,-1.2032,-1.2033,-1.2038,-1.2037,-1.2036,0,0,0,0,0,0,0,0,0,0,0,0,0,-1.2,-1.2,-1.1988,-1.2006,-1.2008,-1.1995,-1.1995,-1.1995,-1.203,-1.2031,-1.2033,-1.2034,-1.2038,-1.2037,-1.2036,-1.2005,0,0,-1.2033,-1.2033,0,0,0,0,0,0,0,0,-1.2,-1.2,-1.2004,-1.2005,-1.2007,-1.2013,-1.2002,-1.1999,-1.203,-1.2022,-1.2033,-1.2034,-1.2028,-1.2028,-1.2027,-1.2005,-1.2006,-1.2033,-1.2033,-1.2032,-1.2032,0,0,0,0,0,0,0,-1.2,-1.2,-1.1991,-1.2004,-1.2006,-1.2013,-1.2015,-1.2001,-1.2018,-1.2022,-1.2025,-1.2026,-1.203,-1.2028,-1.2027,-1.2006,-1.2033,-1.2032,-1.2032,-1.2031,-1.1956,-1.1955,0,0,0,0,0,0,-1.1998,-1.1999,-1.1991,-1.1991,-1.2007,-1.2012,-1.2013,-1.201,-1.2018,-1.2021,-1.2024,-1.2027,-1.2029,-1.2028,-1.2027,-1.1989,-1.2032,-1.2031,-1.2031,-1.1957,-1.1956,-1.1954,0,0,0,0,0,0,-1.1998,-1.1997,-1.199,-1.1996,-1.1996,-1.201,-1.2006,-1.2009,-1.2008,-1.202,-1.2022,-1.202,-1.203,-1.2029,-1.201,-1.199,-1.2031,-1.203,-1.1959,-1.1957,-1.1955,-1.1914,0,0,0,0,0,0,-1.1999,-1.1997,-1.1986,-1.1995,-1.1995,-1.1974,-1.2005,-1.2009,-1.2006,-1.201,-1.2016,-1.2018,-1.2031,-1.2011,-1.2009,-1.1989,-1.2029,-1.1961,-1.1958,-1.1956,-1.1917,-1.1911,-1.1905,0,0,0,0,0,-1.1999,-1.1974,-1.1985,-1.1984,-1.1982,-1.1972,-1.1972,-1.1988,-1.2004,-1.1993,-1.2,-1.2018,-1.1993,-1.2009,-1.2007,-1.1987,-1.1962,-1.1959,-1.1956,-1.192,-1.1912,-1.1905,0,0,0,0,0,0,-1.1962,-1.1976,-1.1988,-1.1966,-1.1968,-1.1978,-1.1964,-1.1979,-1.1976,-1.1979,-1.1998,-1.1999,-1.1976,-1.198,-1.1998,-1.1955,-1.198,-1.1977,-1.1954,-1.1946,-1.1941,-1.1939,-1.2028,0,0,0,0,0,-1.1951,-1.1943,-1.1956,-1.1935,-1.1935,-1.1949,-1.1946,-1.1958,-1.196,-1.196,-1.1967,-1.1967,-1.1959,-1.1953,-1.1947,-1.1918,-1.1919,-1.1903,-1.1897,-1.1892,-1.1888,-1.187,-1.1863,-1.1944,-1.1944,-1.1944,0,0,-1.1929,-1.1936,-1.1929,-1.1927,-1.193,-1.1919,-1.195,-1.1938,-1.193,-1.1958,-1.194,-1.1945,-1.1946,-1.1922,-1.1911,-1.1924,-1.1866,-1.1888,-1.1884,-1.1883,-1.1866,-1.1858,-1.1852,-1.1942,-1.1942,-1.1942,0,0,-1.1882,-1.1888,-1.187,-1.1872,-1.1875,-1.1885,-1.1881,-1.1888,-1.1892,-1.1875,-1.1895,-1.1886,-1.1872,-1.1872,-1.187,-1.1821,-1.1836,-1.1819,-1.1787,-1.1769,-1.1763,-1.1757,-1.1737,-1.173,-1.1815,-1.1815,-1.1815,0,-1.1854,-1.184,-1.1859,-1.1845,-1.1842,-1.1868,-1.1849,-1.185,-1.1851,-1.1848,-1.1862,-1.1845,-1.1848,-1.1822,-1.181,-1.1809,-1.1802,-1.1817,-1.1763,-1.1757,-1.1752,-1.1733,-1.1726,-1.1813,-1.1813,-1.1813,-1.1813,0,-1.1803,-1.1793,-1.1778,-1.1778,-1.1774,-1.1758,-1.1773,-1.1766,-1.1778,-1.1786,-1.1766,-1.1771,-1.1764,-1.176,-1.1772,-1.1735,-1.1742,-1.1759,-1.1784,-1.1742,-1.1724,-1.1717,-1.1809,-1.181,-1.1811,-1.1811,0,0,-1.1733,-1.1743,-1.1737,-1.1736,-1.1742,-1.1734,-1.1718,-1.1712,-1.1705,-1.1705,-1.169,-1.1677,-1.1693,-1.169,-1.1702,-1.1687,-1.1645,-1.1706,-1.1706,-1.1692,-1.1601,-1.1586,-1.1577,-1.1656,-1.1654,-1.1653,-1.16,0,-1.1686,-1.166,-1.1676,-1.1646,-1.1636,-1.166,-1.1645,-1.1646,-1.1652,-1.1643,-1.165,-1.164,-1.1663,-1.1661,-1.1647,-1.1653,-1.1626,-1.1657,-1.164,-1.1639,-1.1636,-1.1569,-1.1553,-1.1503,-1.1593,-1.1592,-1.1592,0,-1.1628,-1.1625,-1.1595,-1.16,-1.1596,-1.1583,-1.1578,-1.157,-1.157,-1.1576,-1.1572,-1.1587,-1.157,-1.1596,-1.1571,-1.1592,-1.1585,-1.1587,-1.1585,-1.1582,-1.1611,-1.1561,-1.1487,-1.1478,-1.1581,-1.1582,-1.1583,0,-1.1576,-1.1565,-1.1545,-1.1544,-1.155,-1.154,-1.1542,-1.1544,-1.1539,-1.1534,-1.153,-1.1524,-1.1519,-1.1513,-1.1525,-1.1543,-1.1497,-1.1525,-1.1498,-1.1498,-1.1486,-1.1486,-1.1407,-1.1486,-1.1486,-1.1486,-1.1487,0,-1.1521,-1.1501,-1.1521,-1.1508,-1.1485,-1.1503,-1.148,-1.1484,-1.1486,-1.1473,-1.1494,-1.1481,-1.1498,-1.1487,-1.1496,-1.1472,-1.147,-1.1472,-1.1475,-1.1469,-1.1468,-1.1463,-1.1466,-1.1484,-1.1485,-1.1485,-1.1486,0,-1.1459,-1.1472,-1.1451,-1.1459,-1.146,-1.1443,-1.1449,-1.1436,-1.1444,-1.1427,-1.1424,-1.1435,-1.1422,-1.1434,-1.1422,-1.1428,-1.1395,-1.1404,-1.1394,-1.1396,-1.1368,-1.1369,-1.1281,-1.1269,-1.1358,-1.1357,-1.1357,0,-1.1422,-1.1407,-1.1413,-1.1406,-1.1406,-1.1395,-1.139,-1.1407,-1.14,-1.1398,-1.1385,-1.1374,-1.1366,-1.1344,-1.135,-1.134,-1.1347,-1.1317,-1.1345,-1.1339,-1.1342,-1.1342,-1.1339,-1.131,-1.1309,-1.1308,-1.1307,0,-1.1353,-1.136,-1.1352,-1.1346,-1.1339,-1.1334,-1.1331,-1.1324,-1.1341,-1.1332,-1.1319,-1.1313,-1.13,-1.1288,-1.1279,-1.128,-1.1295,-1.1298,-1.1291,-1.1284,-1.1278,-1.1278,-1.1375,-1.13,-1.1301,-1.1301,-1.1301,-1.1302,-1.13,-1.1287,-1.1289,-1.1278,-1.1278,-1.1274,-1.1262,-1.1268,-1.1258,-1.1249,-1.1259,-1.1243,-1.1241,-1.1232,-1.123,-1.1216,-1.1229,-1.1219,-1.1216,-1.1213,-1.1207,-1.1282,-1.1215,-1.1215,-1.1216,-1.1216,-1.1216,0,-1.1231,-1.1233,-1.1223,-1.1218,-1.1209,-1.1226,-1.1223,-1.1214,-1.12,-1.1198,-1.1189,-1.1173,-1.116,-1.1165,-1.1154,-1.1141,-1.1148,-1.1138,-1.1137,-1.1136,-1.1198,-1.1204,-1.1132,-1.1132,-1.1132,-1.1132,-1.1132,-1.1132,-1.1193,-1.117,-1.1177,-1.1153,-1.1156,-1.114,-1.1136,-1.1132,-1.113,-1.1111,-1.1101,-1.1105,-1.1105,-1.1094,-1.1082,-1.1084,-1.1077,-1.1064,-1.1067,-1.1124,-1.1133,-1.114,-1.1146,-1.1063,-1.1063,-1.1006,-1.1006,-1.1005]}]]